Regional Weather Roundup
Issued by NWS

Home | Current Version | Previous Version | Graphics & Text | Print | Product List | Glossary On
Versions: 1 2 3 4 5 6 7 8 9 10 11 12 13 14 15 16 17 18 19 20 21 22 23 24 25 26 27 28 29 30 31 32 33 34 35 36 37 38 39 40 41 42 43 44 45 46 47 48 49 50
000
ASUS43 KLSX 241807
RWRMO

WEATHER SUMMARY FOR MISSOURI
NATIONAL WEATHER SERVICE SPRINGFIELD MO
1200 PM CST TUE JAN 24 2017

NOTE: "FAIR" INDICATES FEW OR NO CLOUDS BELOW 12,000 FEET WITH NO
       SIGNIFICANT WEATHER AND/OR OBSTRUCTIONS TO VISIBILITY.
       CURRENT SKY AND/OR WEATHER CONDITIONS ARE NOT AVAILABLE FOR
       CHILLICOTHE AND FARMINGTON.

MOZ001>031-035>038-043-044-053-054-241900-
...NORTHERN AND WESTERN MISSOURI...

CITY           SKY/WX    TMP DP  RH WIND       PRES   REMARKS
KANSAS CTY INT CLOUDY    36  32  85 E22       29.59F WCI  25
6HR MIN TEMP:  31; 6HR MAX TEMP:  36; 6HR PCP: TRACE;

KANSAS C DTWN  CLOUDY    41  35  79 E16       29.59F
6HR MIN TEMP:  33; 6HR MAX TEMP:  41;

LEE`S SUMMIT   MOSUNNY   41  36  82 E16       29.60F
6HR MIN TEMP:  31; 6HR MAX TEMP:  41;

ST JOSEPH      CLOUDY    36  33  89 E16G30    29.60F WCI  26
6HR MIN TEMP:  31; 6HR MAX TEMP:  36; 6HR PCP: TRACE;

CHILLICOTHE      N/A     37  33  85 E10G18    29.73F WCI  30
6HR MIN TEMP:  31; 6HR MAX TEMP:  37;

KIRKSVILLE     CLOUDY    34  31  88 E10       29.79F WCI  26
6HR MIN TEMP:  30; 6HR MAX TEMP:  35;


$$
MOZ066>068-077>081-088>096-101>105-241900-
...SOUTHWEST MISSOURI...

CITY           SKY/WX    TMP DP  RH WIND       PRES   REMARKS
SPRINGFIELD    PTSUNNY   52  36  54 S26G38    29.64F
6HR MIN TEMP:  39; 6HR MAX TEMP:  53;

JOPLIN         MOSUNNY   64  38  38 S22G31    29.56F
6HR MIN TEMP:  41; 6HR MAX TEMP:  64;

BRANSON        MOSUNNY   55  39  54 SE15      29.71F

$$
MOZ032>034-039>042-045>050-055>058-069>072-241900-
...CENTRAL MISSOURI...

CITY           SKY/WX    TMP DP  RH WIND       PRES   REMARKS
COLUMBIA       CLOUDY    44  36  73 E14       29.73F
6HR MIN TEMP:  32; 6HR MAX TEMP:  44;

JEFFERSON CITY CLOUDY    45  36  70 E15       29.74F
6HR MIN TEMP:  26; 6HR MAX TEMP:  45;

ROLLA          MOSUNNY   50  37  61 SE13      29.74F
6HR MIN TEMP:  28; 6HR MAX TEMP:  50;

SEDALIA        PTSUNNY   46  37  71 E16       29.68F
6HR MIN TEMP:  31; 6HR MAX TEMP:  46;

WARRENSBURG    CLOUDY    45  36  70 E12       29.63F
OSAGE BEACH    MOSUNNY   49  38  65 SE8       29.72F

$$
MOZ051-052-059>065-241900-
...EAST CENTRAL MISSOURI...

CITY           SKY/WX    TMP DP  RH WIND       PRES   REMARKS
ST LOUIS INTL  MOSUNNY   48  33  56 SE12      29.87F
6HR MIN TEMP:  35; 6HR MAX TEMP:  48;

SPIRIT OF STL  PTSUNNY   46  35  65 SE7       29.85F
6HR MIN TEMP:  36; 6HR MAX TEMP:  46;

ST CHARLES     SUNNY     46  35  65 S9        29.87F
6HR MIN TEMP:  34; 6HR MAX TEMP:  46;


$$
MOZ072>076-082>087-097>100-106>115-241900-
...SOUTH CENTRAL AND SOUTHEAST MISSOURI...

CITY           SKY/WX    TMP DP  RH WIND       PRES   REMARKS
CAPE GIRARDEAU NOT AVBL
FARMINGTON     SUNNY     46  36  68 SE8       29.86F
6HR MIN TEMP:  23; 6HR MAX TEMP:  46;

POPLAR BLUFF   SUNNY     47  40  76 SE9       29.89F
6HR MIN TEMP:  28; 6HR MAX TEMP:  47;

WEST PLAINS    SUNNY     50  37  61 S15G23    29.80F
6HR MIN TEMP:  33; 6HR MAX TEMP:  51;


$$



USA.gov is the U.S. government's official web portal to all federal, state and local government web resources and services.